Zurück zum Katalog

STARLINK-33916

AktivKommunikationVLEO
NORAD 63792·PAYLOAD·🇺🇸 United States

Gestartet May 2, 2025 von Cape Canaveral Space Force Station

Loading…

Nächste Überflüge (nächste 24 Stunden)

TLE

AktuellSource: CelesTrak SupGP

Epoche: Sep 15, 2026, 02:53 UTC

1 63792C 25091T   26258.12062500 -.00028765  00000+0 -10417-2 0  2585
2 63792  43.0002  62.9925 0001568 267.2090 322.6257 15.27596863    17

Verfolge STARLINK-33916 in Echtzeit mit AllMySat

Download on the App Store